Year,Month,Day,Hour,Minute,Value (Times are PST for temperature in C)
2021,06,25,00,00,14.80
2021,06,25,00,01,14.70
2021,06,25,00,02,14.60
2021,06,25,00,03,14.60
2021,06,25,00,04,14.60
2021,06,25,00,05,14.50
2021,06,25,00,06,14.50
2021,06,25,00,07,14.40
2021,06,25,00,08,14.40
2021,06,25,00,09,14.40
2021,06,25,00,10,14.40
2021,06,25,00,11,14.30
2021,06,25,00,12,14.30
2021,06,25,00,13,14.30
2021,06,25,00,14,14.30
2021,06,25,00,15,14.30
2021,06,25,00,16,14.30
2021,06,25,00,17,14.30
2021,06,25,00,18,14.30
2021,06,25,00,19,14.30
2021,06,25,00,20,14.40
2021,06,25,00,21,14.40
2021,06,25,00,22,14.40
2021,06,25,00,23,14.40
2021,06,25,00,24,14.40
2021,06,25,00,25,14.50
2021,06,25,00,26,14.50
2021,06,25,00,27,14.50
2021,06,25,00,28,14.50
2021,06,25,00,29,14.50
2021,06,25,00,30,14.50
2021,06,25,00,31,14.50
2021,06,25,00,32,14.50
2021,06,25,00,33,14.50
2021,06,25,00,34,14.50
2021,06,25,00,35,14.50
2021,06,25,00,36,14.50
2021,06,25,00,37,14.50
2021,06,25,00,38,14.60
2021,06,25,00,39,14.60
2021,06,25,00,40,14.60
2021,06,25,00,41,14.70
2021,06,25,00,42,14.70
2021,06,25,00,43,14.80
2021,06,25,00,44,14.80
2021,06,25,00,45,14.80
2021,06,25,00,46,14.80
2021,06,25,00,47,14.90
2021,06,25,00,48,14.90
2021,06,25,00,49,15.00
2021,06,25,00,50,15.00
2021,06,25,00,51,15.10
2021,06,25,00,52,15.10
2021,06,25,00,53,15.20
2021,06,25,00,54,15.20
2021,06,25,00,55,15.20
2021,06,25,00,56,15.30
2021,06,25,00,57,15.30
2021,06,25,00,58,15.30
2021,06,25,00,59,15.40
2021,06,25,01,00,15.50
2021,06,25,01,01,15.50
2021,06,25,01,02,15.60
2021,06,25,01,03,15.60
2021,06,25,01,04,15.60
2021,06,25,01,05,15.70
2021,06,25,01,06,15.70
2021,06,25,01,07,15.70
2021,06,25,01,08,15.80
2021,06,25,01,09,15.80
2021,06,25,01,10,15.80
2021,06,25,01,11,15.80
2021,06,25,01,12,15.90
2021,06,25,01,13,16.00
2021,06,25,01,14,16.10
2021,06,25,01,15,16.10
2021,06,25,01,16,16.20
2021,06,25,01,17,16.30
2021,06,25,01,18,16.40
2021,06,25,01,19,16.40
2021,06,25,01,20,16.50
2021,06,25,01,21,16.60
2021,06,25,01,22,16.70
2021,06,25,01,23,16.70
2021,06,25,01,24,16.80
2021,06,25,01,25,16.90
2021,06,25,01,26,17.00
2021,06,25,01,27,17.00
2021,06,25,01,28,17.00
2021,06,25,01,29,17.10
2021,06,25,01,30,17.10
2021,06,25,01,31,17.10
2021,06,25,01,32,17.10
2021,06,25,01,33,17.10
2021,06,25,01,34,17.10
2021,06,25,01,35,17.10
2021,06,25,01,36,17.20
2021,06,25,01,37,17.20
2021,06,25,01,38,17.20
2021,06,25,01,39,17.20
2021,06,25,01,40,17.20
2021,06,25,01,41,17.20
2021,06,25,01,42,17.20
2021,06,25,01,43,17.30
2021,06,25,01,44,17.30
2021,06,25,01,45,17.30
2021,06,25,01,46,17.30
2021,06,25,01,47,17.30
2021,06,25,01,48,17.30
2021,06,25,01,49,17.30
2021,06,25,01,50,17.30
2021,06,25,01,51,17.30
2021,06,25,01,52,17.30
2021,06,25,01,53,17.30
2021,06,25,01,54,17.30
2021,06,25,01,55,17.30
2021,06,25,01,56,17.40
2021,06,25,01,57,17.40
2021,06,25,01,58,17.40
2021,06,25,01,59,17.50
2021,06,25,02,00,17.50
2021,06,25,02,01,17.50
2021,06,25,02,02,17.50
2021,06,25,02,03,17.50
2021,06,25,02,04,17.50
2021,06,25,02,05,17.40
2021,06,25,02,06,17.40
2021,06,25,02,07,17.40
2021,06,25,02,08,17.40
2021,06,25,02,09,17.40
2021,06,25,02,10,17.40
2021,06,25,02,11,17.40
2021,06,25,02,12,17.40
2021,06,25,02,13,17.40
2021,06,25,02,14,17.40
2021,06,25,02,15,17.40
2021,06,25,02,16,17.40
2021,06,25,02,17,17.40
2021,06,25,02,18,17.40
2021,06,25,02,19,17.40
2021,06,25,02,20,17.40
2021,06,25,02,21,17.40
2021,06,25,02,22,17.40
2021,06,25,02,23,17.40
2021,06,25,02,24,17.40
2021,06,25,02,25,17.40
2021,06,25,02,26,17.40
2021,06,25,02,27,17.40
2021,06,25,02,28,17.40
2021,06,25,02,29,17.40
2021,06,25,02,30,17.40
2021,06,25,02,31,17.40
2021,06,25,02,32,17.30
2021,06,25,02,33,17.30
2021,06,25,02,34,17.20
2021,06,25,02,35,16.90
2021,06,25,02,36,16.70
2021,06,25,02,37,16.50
2021,06,25,02,38,16.40
2021,06,25,02,39,16.40
2021,06,25,02,40,16.30
2021,06,25,02,41,16.30
2021,06,25,02,42,16.30
2021,06,25,02,43,16.30
2021,06,25,02,44,16.40
2021,06,25,02,45,16.40
2021,06,25,02,46,16.50
2021,06,25,02,47,16.70
2021,06,25,02,48,16.70
2021,06,25,02,49,16.80
2021,06,25,02,50,16.90
2021,06,25,02,51,16.90
2021,06,25,02,52,17.00
2021,06,25,02,53,17.00
2021,06,25,02,54,17.00
2021,06,25,02,55,17.00
2021,06,25,02,56,17.00
2021,06,25,02,57,17.00
2021,06,25,02,58,17.00
2021,06,25,02,59,17.00
2021,06,25,03,00,16.90
2021,06,25,03,01,16.90
2021,06,25,03,02,16.90
2021,06,25,03,03,16.90
2021,06,25,03,04,16.90
2021,06,25,03,05,17.00
2021,06,25,03,06,17.00
2021,06,25,03,07,17.10
2021,06,25,03,08,17.10
2021,06,25,03,09,17.10
2021,06,25,03,10,17.20
2021,06,25,03,11,17.20
2021,06,25,03,12,17.20
2021,06,25,03,13,17.30
2021,06,25,03,14,17.30
2021,06,25,03,15,17.30
2021,06,25,03,16,17.30
2021,06,25,03,17,17.30
2021,06,25,03,18,17.30
2021,06,25,03,19,17.30
2021,06,25,03,20,17.30
2021,06,25,03,21,17.30
2021,06,25,03,22,17.20
2021,06,25,03,23,17.20
2021,06,25,03,24,17.20
2021,06,25,03,25,17.20
2021,06,25,03,26,17.10
2021,06,25,03,27,17.10
2021,06,25,03,28,17.00
2021,06,25,03,29,17.00
2021,06,25,03,30,17.00
2021,06,25,03,31,17.00
2021,06,25,03,32,16.90
2021,06,25,03,33,16.90
2021,06,25,03,34,16.90
2021,06,25,03,35,16.90
2021,06,25,03,36,16.90
2021,06,25,03,37,16.90
2021,06,25,03,38,16.80
2021,06,25,03,39,16.80
2021,06,25,03,40,16.80
2021,06,25,03,41,16.80
2021,06,25,03,42,16.80
2021,06,25,03,43,16.70
2021,06,25,03,44,16.70
2021,06,25,03,45,16.70
2021,06,25,03,46,16.60
2021,06,25,03,47,16.60
2021,06,25,03,48,16.50
2021,06,25,03,49,16.40
2021,06,25,03,50,16.40
2021,06,25,03,51,16.40
2021,06,25,03,52,16.40
2021,06,25,03,53,16.40
2021,06,25,03,54,16.40
2021,06,25,03,55,16.40
2021,06,25,03,56,16.40
2021,06,25,03,57,16.40
2021,06,25,03,58,16.40
2021,06,25,03,59,16.40
2021,06,25,04,00,16.40
2021,06,25,04,01,16.40
2021,06,25,04,02,16.40
2021,06,25,04,03,16.30
2021,06,25,04,04,16.30
2021,06,25,04,05,16.30
2021,06,25,04,06,16.30
2021,06,25,04,07,16.30
2021,06,25,04,08,16.30
2021,06,25,04,09,16.30
2021,06,25,04,10,16.30
2021,06,25,04,11,16.40
2021,06,25,04,12,16.40
2021,06,25,04,13,16.40
2021,06,25,04,14,16.40
2021,06,25,04,15,16.40
2021,06,25,04,16,16.40
2021,06,25,04,17,16.50
2021,06,25,04,18,16.60
2021,06,25,04,19,16.60
2021,06,25,04,20,16.70
2021,06,25,04,21,16.70
2021,06,25,04,22,16.70
2021,06,25,04,23,16.70
2021,06,25,04,24,16.70
2021,06,25,04,25,16.80
2021,06,25,04,26,16.80
2021,06,25,04,27,16.80
2021,06,25,04,28,16.80
2021,06,25,04,29,16.80
2021,06,25,04,30,16.80
2021,06,25,04,31,16.90
2021,06,25,04,32,16.90
2021,06,25,04,33,16.90
2021,06,25,04,34,16.90
2021,06,25,04,35,16.80
2021,06,25,04,36,16.70
2021,06,25,04,37,16.60
2021,06,25,04,38,16.50
2021,06,25,04,39,16.40
2021,06,25,04,40,16.40
2021,06,25,04,41,16.30
2021,06,25,04,42,16.30
2021,06,25,04,43,16.30
2021,06,25,04,44,16.20
2021,06,25,04,45,16.20
2021,06,25,04,46,16.20
2021,06,25,04,47,16.10
2021,06,25,04,48,16.10
2021,06,25,04,49,16.10
2021,06,25,04,50,16.10
2021,06,25,04,51,16.10
2021,06,25,04,52,16.10
2021,06,25,04,53,16.00
2021,06,25,04,54,15.90
2021,06,25,04,55,15.80
2021,06,25,04,56,15.80
2021,06,25,04,57,15.70
2021,06,25,04,58,15.60
2021,06,25,04,59,15.50
2021,06,25,05,00,15.50
2021,06,25,05,01,15.50
2021,06,25,05,02,15.40
2021,06,25,05,03,15.40
2021,06,25,05,04,15.40
2021,06,25,05,05,15.40
2021,06,25,05,06,15.40
2021,06,25,05,07,15.40
2021,06,25,05,08,15.40
2021,06,25,05,09,15.40
2021,06,25,05,10,15.40
2021,06,25,05,11,15.40
2021,06,25,05,12,15.40
2021,06,25,05,13,15.40
2021,06,25,05,14,15.40
2021,06,25,05,15,15.40
2021,06,25,05,16,15.40
2021,06,25,05,17,15.30
2021,06,25,05,18,15.20
2021,06,25,05,19,15.10
2021,06,25,05,20,15.10
2021,06,25,05,21,15.00
2021,06,25,05,22,15.00
2021,06,25,05,23,15.00
2021,06,25,05,24,15.00
2021,06,25,05,25,14.90
2021,06,25,05,26,14.90
2021,06,25,05,27,14.90
2021,06,25,05,28,14.80
2021,06,25,05,29,14.70
2021,06,25,05,30,14.60
2021,06,25,05,31,14.50
2021,06,25,05,32,14.30
2021,06,25,05,33,14.30
2021,06,25,05,34,14.20
2021,06,25,05,35,14.10
2021,06,25,05,36,14.10
2021,06,25,05,37,14.00
2021,06,25,05,38,13.90
2021,06,25,05,39,13.90
2021,06,25,05,40,13.80
2021,06,25,05,41,13.70
2021,06,25,05,42,13.60
2021,06,25,05,43,13.50
2021,06,25,05,44,13.50
2021,06,25,05,45,13.40
2021,06,25,05,46,13.30
2021,06,25,05,47,13.30
2021,06,25,05,48,13.30
2021,06,25,05,49,13.30
2021,06,25,05,50,13.20
2021,06,25,05,51,13.20
2021,06,25,05,52,13.20
2021,06,25,05,53,13.20
2021,06,25,05,54,13.20
2021,06,25,05,55,13.20
2021,06,25,05,56,13.20
2021,06,25,05,57,13.20
2021,06,25,05,58,13.20
2021,06,25,05,59,13.30
2021,06,25,06,00,13.30
2021,06,25,06,01,13.30
2021,06,25,06,02,13.30
2021,06,25,06,03,13.40
2021,06,25,06,04,13.50
2021,06,25,06,05,13.50
2021,06,25,06,06,13.50
2021,06,25,06,07,13.60
2021,06,25,06,08,13.60
2021,06,25,06,09,13.70
2021,06,25,06,10,13.70
2021,06,25,06,11,13.70
2021,06,25,06,12,13.70
2021,06,25,06,13,13.70
2021,06,25,06,14,13.70
2021,06,25,06,15,13.80
2021,06,25,06,16,13.80
2021,06,25,06,17,13.80
2021,06,25,06,18,13.80
2021,06,25,06,19,13.90
2021,06,25,06,20,13.90
2021,06,25,06,21,13.90
2021,06,25,06,22,13.90
2021,06,25,06,23,14.00
2021,06,25,06,24,14.00
2021,06,25,06,25,14.00
2021,06,25,06,26,14.00
2021,06,25,06,27,14.10
2021,06,25,06,28,14.10
2021,06,25,06,29,14.20
2021,06,25,06,30,14.20
2021,06,25,06,31,14.30
2021,06,25,06,32,14.40
2021,06,25,06,33,14.50
2021,06,25,06,34,14.50
2021,06,25,06,35,14.60
2021,06,25,06,36,14.70
2021,06,25,06,37,14.80
2021,06,25,06,38,14.80
2021,06,25,06,39,14.90
2021,06,25,06,40,15.00
2021,06,25,06,41,15.10
2021,06,25,06,42,15.20
2021,06,25,06,43,15.20
2021,06,25,06,44,15.30
2021,06,25,06,45,15.40
2021,06,25,06,46,15.60
2021,06,25,06,47,15.70
2021,06,25,06,48,15.80
2021,06,25,06,49,15.90
2021,06,25,06,50,16.00
2021,06,25,06,51,16.10
2021,06,25,06,52,16.20
2021,06,25,06,53,16.30
2021,06,25,06,54,16.40
2021,06,25,06,55,16.40
2021,06,25,06,56,16.50
2021,06,25,06,57,16.60
2021,06,25,06,58,16.70
2021,06,25,06,59,16.70
2021,06,25,07,00,16.80
2021,06,25,07,01,16.80
2021,06,25,07,02,16.90
2021,06,25,07,03,16.90
2021,06,25,07,04,16.90
2021,06,25,07,05,17.00
2021,06,25,07,06,17.00
2021,06,25,07,07,17.20
2021,06,25,07,08,17.20
2021,06,25,07,09,17.30
2021,06,25,07,10,17.40
2021,06,25,07,11,17.50
2021,06,25,07,12,17.60
2021,06,25,07,13,17.70
2021,06,25,07,14,17.80
2021,06,25,07,15,17.90
2021,06,25,07,16,17.90
2021,06,25,07,17,17.90
2021,06,25,07,18,18.10
2021,06,25,07,19,18.10
2021,06,25,07,20,18.10
2021,06,25,07,21,18.00
2021,06,25,07,22,18.00
2021,06,25,07,23,17.90
2021,06,25,07,24,17.90
2021,06,25,07,25,17.80
2021,06,25,07,26,17.80
2021,06,25,07,27,17.70
2021,06,25,07,28,17.70
2021,06,25,07,29,17.70
2021,06,25,07,30,17.70
2021,06,25,07,31,17.70
2021,06,25,07,32,17.70
2021,06,25,07,33,17.80
2021,06,25,07,34,17.90
2021,06,25,07,35,17.90
2021,06,25,07,36,18.00
2021,06,25,07,37,18.10
2021,06,25,07,38,18.10
2021,06,25,07,39,18.20
2021,06,25,07,40,18.20
2021,06,25,07,41,18.30
2021,06,25,07,42,18.30
2021,06,25,07,43,18.40
2021,06,25,07,44,18.50
2021,06,25,07,45,18.50
2021,06,25,07,46,18.50
2021,06,25,07,47,18.60
2021,06,25,07,48,18.60
2021,06,25,07,49,18.60
2021,06,25,07,50,18.60
2021,06,25,07,51,18.60
2021,06,25,07,52,18.60
2021,06,25,07,53,18.60
2021,06,25,07,54,18.70
2021,06,25,07,55,18.80
2021,06,25,07,56,18.90
2021,06,25,07,57,19.00
2021,06,25,07,58,19.10
2021,06,25,07,59,19.10
2021,06,25,08,00,19.20
2021,06,25,08,01,19.20
2021,06,25,08,02,19.30
2021,06,25,08,03,19.40
2021,06,25,08,04,19.50
2021,06,25,08,05,19.50
2021,06,25,08,06,19.60
2021,06,25,08,07,19.60
2021,06,25,08,08,19.70
2021,06,25,08,09,19.80
2021,06,25,08,10,19.80
2021,06,25,08,11,19.90
2021,06,25,08,12,19.90
2021,06,25,08,13,20.00
2021,06,25,08,14,20.10
2021,06,25,08,15,20.10
2021,06,25,08,16,20.10
2021,06,25,08,17,20.20
2021,06,25,08,18,20.20
2021,06,25,08,19,20.30
2021,06,25,08,20,20.40
2021,06,25,08,21,20.50
2021,06,25,08,22,20.50
2021,06,25,08,23,20.50
2021,06,25,08,24,20.60
2021,06,25,08,25,20.60
2021,06,25,08,26,20.70
2021,06,25,08,27,20.70
2021,06,25,08,28,20.80
2021,06,25,08,29,20.80
2021,06,25,08,30,20.90
2021,06,25,08,31,21.00
2021,06,25,08,32,21.00
2021,06,25,08,33,20.90
2021,06,25,08,34,20.90
2021,06,25,08,35,20.90
2021,06,25,08,36,20.90
2021,06,25,08,37,20.90
2021,06,25,08,38,20.90
2021,06,25,08,39,20.90
2021,06,25,08,40,21.00
2021,06,25,08,41,21.00
2021,06,25,08,42,21.00
2021,06,25,08,43,21.10
2021,06,25,08,44,21.10
2021,06,25,08,45,21.10
2021,06,25,08,46,21.10
2021,06,25,08,47,21.10
2021,06,25,08,48,21.10
2021,06,25,08,49,21.20
2021,06,25,08,50,21.30
2021,06,25,08,51,21.30
2021,06,25,08,52,21.50
2021,06,25,08,53,21.60
2021,06,25,08,54,21.80
2021,06,25,08,55,21.90
2021,06,25,08,56,22.00
2021,06,25,08,57,22.00
2021,06,25,08,58,22.10
2021,06,25,08,59,22.10
2021,06,25,09,00,22.00
2021,06,25,09,01,21.90
2021,06,25,09,02,21.90
2021,06,25,09,03,21.90
2021,06,25,09,04,22.00
2021,06,25,09,05,21.90
2021,06,25,09,06,21.90
2021,06,25,09,07,21.90
2021,06,25,09,08,21.90
2021,06,25,09,09,21.90
2021,06,25,09,10,21.90
2021,06,25,09,11,22.00
2021,06,25,09,12,22.10
2021,06,25,09,13,22.10
2021,06,25,09,14,22.10
2021,06,25,09,15,22.10
2021,06,25,09,16,22.10
2021,06,25,09,17,22.20
2021,06,25,09,18,22.30
2021,06,25,09,19,22.30
2021,06,25,09,20,22.40
2021,06,25,09,21,22.30
2021,06,25,09,22,22.30
2021,06,25,09,23,22.30
2021,06,25,09,24,22.30
2021,06,25,09,25,22.40
2021,06,25,09,26,22.40
2021,06,25,09,27,22.60
2021,06,25,09,28,22.60
2021,06,25,09,29,22.70
2021,06,25,09,30,22.70
2021,06,25,09,31,22.70
2021,06,25,09,32,22.70
2021,06,25,09,33,22.70
2021,06,25,09,34,22.60
2021,06,25,09,35,22.50
2021,06,25,09,36,22.40
2021,06,25,09,37,22.40
2021,06,25,09,38,22.20
2021,06,25,09,39,22.10
2021,06,25,09,40,22.00
2021,06,25,09,41,22.00
2021,06,25,09,42,22.00
2021,06,25,09,43,22.00
2021,06,25,09,44,21.90
2021,06,25,09,45,21.90
2021,06,25,09,46,21.90
2021,06,25,09,47,21.90
2021,06,25,09,48,21.90
2021,06,25,09,49,21.90
2021,06,25,09,50,21.90
2021,06,25,09,51,21.90
2021,06,25,09,52,22.00
2021,06,25,09,53,22.10
2021,06,25,09,54,22.10
2021,06,25,09,55,22.10
2021,06,25,09,56,22.10
2021,06,25,09,57,22.00
2021,06,25,09,58,22.10
2021,06,25,09,59,22.20
2021,06,25,10,00,22.20
2021,06,25,10,01,22.10
2021,06,25,10,02,22.10
2021,06,25,10,03,22.20
2021,06,25,10,04,22.20
2021,06,25,10,05,22.30
2021,06,25,10,06,22.30
2021,06,25,10,07,22.40
2021,06,25,10,08,22.50
2021,06,25,10,09,22.50
2021,06,25,10,10,22.40
2021,06,25,10,11,22.40
2021,06,25,10,12,22.40
2021,06,25,10,13,22.40
2021,06,25,10,14,22.30
2021,06,25,10,15,22.40
2021,06,25,10,16,22.40
2021,06,25,10,17,22.50
2021,06,25,10,18,22.60
2021,06,25,10,19,22.80
2021,06,25,10,20,22.90
2021,06,25,10,21,23.10
2021,06,25,10,22,23.20
2021,06,25,10,23,23.10
2021,06,25,10,24,22.90
2021,06,25,10,25,22.90
2021,06,25,10,26,22.90
2021,06,25,10,27,22.80
2021,06,25,10,28,22.80
2021,06,25,10,29,22.80
2021,06,25,10,30,22.80
2021,06,25,10,31,22.90
2021,06,25,10,32,23.00
2021,06,25,10,33,23.10
2021,06,25,10,34,23.10
2021,06,25,10,35,22.90
2021,06,25,10,36,22.70
2021,06,25,10,37,22.40
2021,06,25,10,38,22.20
2021,06,25,10,39,22.00
2021,06,25,10,40,21.80
2021,06,25,10,41,21.70
2021,06,25,10,42,21.70
2021,06,25,10,43,21.80
2021,06,25,10,44,22.00
2021,06,25,10,45,22.10
2021,06,25,10,46,22.30
2021,06,25,10,47,22.40
2021,06,25,10,48,22.30
2021,06,25,10,49,22.40
2021,06,25,10,50,22.50
2021,06,25,10,51,22.70
2021,06,25,10,52,22.90
2021,06,25,10,53,22.90
2021,06,25,10,54,23.10
2021,06,25,10,55,23.20
2021,06,25,10,56,23.30
2021,06,25,10,57,23.30
2021,06,25,10,58,23.30
2021,06,25,10,59,23.30
2021,06,25,11,00,23.20
2021,06,25,11,01,23.20
2021,06,25,11,02,23.20
2021,06,25,11,03,23.10
2021,06,25,11,04,23.10
2021,06,25,11,05,23.10
2021,06,25,11,06,23.10
2021,06,25,11,07,23.20
2021,06,25,11,08,23.30
2021,06,25,11,09,23.50
2021,06,25,11,10,23.70
2021,06,25,11,11,23.80
2021,06,25,11,12,23.80
2021,06,25,11,13,23.70
2021,06,25,11,14,23.70
2021,06,25,11,15,23.60
2021,06,25,11,16,23.40
2021,06,25,11,17,23.40
2021,06,25,11,18,23.30
2021,06,25,11,19,23.40
2021,06,25,11,20,23.50
2021,06,25,11,21,23.60
2021,06,25,11,22,23.60
2021,06,25,11,23,23.60
2021,06,25,11,24,23.70
2021,06,25,11,25,23.70
2021,06,25,11,26,23.90
2021,06,25,11,27,24.10
2021,06,25,11,28,24.20
2021,06,25,11,29,24.20
2021,06,25,11,30,24.20
2021,06,25,11,31,24.10
2021,06,25,11,32,24.00
2021,06,25,11,33,23.90
2021,06,25,11,34,23.70
2021,06,25,11,35,23.60
2021,06,25,11,36,23.60
2021,06,25,11,37,23.40
2021,06,25,11,38,23.30
2021,06,25,11,39,23.20
2021,06,25,11,40,23.20
2021,06,25,11,41,23.20
2021,06,25,11,42,23.30
2021,06,25,11,43,23.30
2021,06,25,11,44,23.30
2021,06,25,11,45,23.30
2021,06,25,11,46,23.30
2021,06,25,11,47,23.40
2021,06,25,11,48,23.50
2021,06,25,11,49,23.60
2021,06,25,11,50,23.70
2021,06,25,11,51,23.70
2021,06,25,11,52,23.70
2021,06,25,11,53,23.70
2021,06,25,11,54,23.70
2021,06,25,11,55,23.70
2021,06,25,11,56,23.70
2021,06,25,11,57,23.80
2021,06,25,11,58,23.80
2021,06,25,11,59,23.80
2021,06,25,12,00,23.80
2021,06,25,12,01,23.70
2021,06,25,12,02,23.70
2021,06,25,12,03,23.70
2021,06,25,12,04,23.70
2021,06,25,12,05,23.70
2021,06,25,12,06,23.70
2021,06,25,12,07,23.70
2021,06,25,12,08,23.60
2021,06,25,12,09,23.60
2021,06,25,12,10,23.60
2021,06,25,12,11,23.60
2021,06,25,12,12,23.40
2021,06,25,12,13,23.40
2021,06,25,12,14,23.60
2021,06,25,12,15,23.70
2021,06,25,12,16,23.60
2021,06,25,12,17,23.50
2021,06,25,12,18,23.30
2021,06,25,12,19,23.40
2021,06,25,12,20,23.40
2021,06,25,12,21,23.40
2021,06,25,12,22,23.40
2021,06,25,12,23,23.50
2021,06,25,12,24,23.70
2021,06,25,12,25,23.80
2021,06,25,12,26,23.80
2021,06,25,12,27,23.80
2021,06,25,12,28,23.70
2021,06,25,12,29,23.70
2021,06,25,12,30,23.70
2021,06,25,12,31,23.90
2021,06,25,12,32,23.90
2021,06,25,12,33,24.00
2021,06,25,12,34,24.10
2021,06,25,12,35,24.10
2021,06,25,12,36,24.10
2021,06,25,12,37,24.10
2021,06,25,12,38,24.20
2021,06,25,12,39,24.40
2021,06,25,12,40,24.40
2021,06,25,12,41,24.50
2021,06,25,12,42,24.70
2021,06,25,12,43,24.90
2021,06,25,12,44,25.10
2021,06,25,12,45,25.30
2021,06,25,12,46,25.50
2021,06,25,12,47,25.60
2021,06,25,12,48,25.70
2021,06,25,12,49,25.60
2021,06,25,12,50,25.50
2021,06,25,12,51,25.40
2021,06,25,12,52,25.30
2021,06,25,12,53,25.30
2021,06,25,12,54,25.30
2021,06,25,12,55,25.30
2021,06,25,12,56,25.30
2021,06,25,12,57,25.30
2021,06,25,12,58,25.30
2021,06,25,12,59,25.40
2021,06,25,13,00,25.50
2021,06,25,13,01,25.40
2021,06,25,13,02,25.40
2021,06,25,13,03,25.20
2021,06,25,13,04,24.90
2021,06,25,13,05,24.80
2021,06,25,13,06,24.60
2021,06,25,13,07,24.70
2021,06,25,13,08,24.90
2021,06,25,13,09,25.10
2021,06,25,13,10,25.20
2021,06,25,13,11,25.30
2021,06,25,13,12,25.40
2021,06,25,13,13,25.40
2021,06,25,13,14,25.40
2021,06,25,13,15,25.40
2021,06,25,13,16,25.40
2021,06,25,13,17,25.30
2021,06,25,13,18,25.20
2021,06,25,13,19,25.20
2021,06,25,13,20,25.30
2021,06,25,13,21,25.30
2021,06,25,13,22,25.30
2021,06,25,13,23,25.40
2021,06,25,13,24,25.50
2021,06,25,13,25,25.70
2021,06,25,13,26,25.80
2021,06,25,13,27,26.00
2021,06,25,13,28,26.20
2021,06,25,13,29,26.30
2021,06,25,13,30,26.30
2021,06,25,13,31,26.30
2021,06,25,13,32,26.40
2021,06,25,13,33,26.40
2021,06,25,13,34,26.40
2021,06,25,13,35,26.40
2021,06,25,13,36,26.40
2021,06,25,13,37,26.50
2021,06,25,13,38,26.60
2021,06,25,13,39,26.70
2021,06,25,13,40,26.90
2021,06,25,13,41,27.00
2021,06,25,13,42,27.10
2021,06,25,13,43,27.20
2021,06,25,13,44,27.20
2021,06,25,13,45,27.40
2021,06,25,13,46,27.40
2021,06,25,13,47,27.50
2021,06,25,13,48,27.40
2021,06,25,13,49,27.40
2021,06,25,13,50,27.50
2021,06,25,13,51,27.50
2021,06,25,13,52,27.50
2021,06,25,13,53,27.60
2021,06,25,13,54,27.60
2021,06,25,13,55,27.60
2021,06,25,13,56,27.60
2021,06,25,13,57,27.40
2021,06,25,13,58,27.40
2021,06,25,13,59,27.30
2021,06,25,14,00,27.40
2021,06,25,14,01,27.50
2021,06,25,14,02,27.60
2021,06,25,14,03,27.70
2021,06,25,14,04,27.70
2021,06,25,14,05,27.80
2021,06,25,14,06,27.90
2021,06,25,14,07,28.10
2021,06,25,14,08,28.30
2021,06,25,14,09,28.40
2021,06,25,14,10,28.30
2021,06,25,14,11,28.20
2021,06,25,14,12,27.90
2021,06,25,14,13,27.70
2021,06,25,14,14,27.60
2021,06,25,14,15,27.40
2021,06,25,14,16,27.40
2021,06,25,14,17,27.30
2021,06,25,14,18,27.30
2021,06,25,14,19,27.10
2021,06,25,14,20,26.90
2021,06,25,14,21,26.90
2021,06,25,14,22,27.10
2021,06,25,14,23,27.20
2021,06,25,14,24,27.10
2021,06,25,14,25,27.10
2021,06,25,14,26,27.10
2021,06,25,14,27,27.30
2021,06,25,14,28,27.30
2021,06,25,14,29,27.40
2021,06,25,14,30,27.50
2021,06,25,14,31,27.60
2021,06,25,14,32,27.80
2021,06,25,14,33,27.90
2021,06,25,14,34,28.00
2021,06,25,14,35,28.00
2021,06,25,14,36,28.00
2021,06,25,14,37,28.00
2021,06,25,14,38,28.00
2021,06,25,14,39,28.00
2021,06,25,14,40,27.90
2021,06,25,14,41,27.90
2021,06,25,14,42,27.80
2021,06,25,14,43,27.70
2021,06,25,14,44,27.60
2021,06,25,14,45,27.50
2021,06,25,14,46,27.40
2021,06,25,14,47,27.50
2021,06,25,14,48,27.70
2021,06,25,14,49,27.70
2021,06,25,14,50,27.70
2021,06,25,14,51,27.60
2021,06,25,14,52,27.50
2021,06,25,14,53,27.40
2021,06,25,14,54,27.40
2021,06,25,14,55,27.30
2021,06,25,14,56,27.50
2021,06,25,14,57,27.60
2021,06,25,14,58,27.70
2021,06,25,14,59,27.70
2021,06,25,15,00,27.60
2021,06,25,15,01,27.40
2021,06,25,15,02,27.40
2021,06,25,15,03,27.50
2021,06,25,15,04,27.70
2021,06,25,15,05,27.70
2021,06,25,15,06,27.80
2021,06,25,15,07,27.90
2021,06,25,15,08,27.90
2021,06,25,15,09,28.00
2021,06,25,15,10,28.00
2021,06,25,15,11,28.10
2021,06,25,15,12,28.10
2021,06,25,15,13,28.20
2021,06,25,15,14,28.30
2021,06,25,15,15,28.30
2021,06,25,15,16,28.40
2021,06,25,15,17,28.70
2021,06,25,15,18,28.90
2021,06,25,15,19,28.90
2021,06,25,15,20,28.90
2021,06,25,15,21,28.90
2021,06,25,15,22,28.90
2021,06,25,15,23,28.90
2021,06,25,15,24,28.90
2021,06,25,15,25,28.80
2021,06,25,15,26,28.70
2021,06,25,15,27,28.70
2021,06,25,15,28,28.70
2021,06,25,15,29,28.60
2021,06,25,15,30,28.70
2021,06,25,15,31,28.90
2021,06,25,15,32,29.10
2021,06,25,15,33,29.20
2021,06,25,15,34,29.20
2021,06,25,15,35,29.10
2021,06,25,15,36,29.10
2021,06,25,15,37,29.10
2021,06,25,15,38,29.10
2021,06,25,15,39,28.90
2021,06,25,15,40,28.90
2021,06,25,15,41,29.00
2021,06,25,15,42,29.10
2021,06,25,15,43,29.30
2021,06,25,15,44,29.40
2021,06,25,15,45,29.40
2021,06,25,15,46,29.40
2021,06,25,15,47,29.30
2021,06,25,15,48,29.20
2021,06,25,15,49,29.20
2021,06,25,15,50,29.10
2021,06,25,15,51,29.10
2021,06,25,15,52,29.10
2021,06,25,15,53,29.10
2021,06,25,15,54,29.00
2021,06,25,15,55,28.90
2021,06,25,15,56,28.90
2021,06,25,15,57,28.90
2021,06,25,15,58,28.90
2021,06,25,15,59,29.00
2021,06,25,16,00,29.10
2021,06,25,16,01,29.20
2021,06,25,16,02,29.30
2021,06,25,16,03,29.20
2021,06,25,16,04,29.20
2021,06,25,16,05,29.10
2021,06,25,16,06,29.10
2021,06,25,16,07,29.10
2021,06,25,16,08,29.20
2021,06,25,16,09,29.30
2021,06,25,16,10,29.40
2021,06,25,16,11,29.40
2021,06,25,16,12,29.50
2021,06,25,16,13,29.60
2021,06,25,16,14,29.70
2021,06,25,16,15,29.80
2021,06,25,16,16,29.90
2021,06,25,16,17,29.90
2021,06,25,16,18,29.90
2021,06,25,16,19,29.90
2021,06,25,16,20,29.90
2021,06,25,16,21,29.90
2021,06,25,16,22,29.70
2021,06,25,16,23,29.50
2021,06,25,16,24,29.40
2021,06,25,16,25,29.30
2021,06,25,16,26,29.20
2021,06,25,16,27,29.20
2021,06,25,16,28,29.20
2021,06,25,16,29,29.20
2021,06,25,16,30,29.20
2021,06,25,16,31,29.20
2021,06,25,16,32,29.30
2021,06,25,16,33,29.40
2021,06,25,16,34,29.40
2021,06,25,16,35,29.50
2021,06,25,16,36,29.60
2021,06,25,16,37,29.60
2021,06,25,16,38,29.60
2021,06,25,16,39,29.40
2021,06,25,16,40,29.40
2021,06,25,16,41,29.30
2021,06,25,16,42,29.30
2021,06,25,16,43,29.30
2021,06,25,16,44,29.50
2021,06,25,16,45,29.50
2021,06,25,16,46,29.50
2021,06,25,16,47,29.50
2021,06,25,16,48,29.50
2021,06,25,16,49,29.40
2021,06,25,16,50,29.40
2021,06,25,16,51,29.40
2021,06,25,16,52,29.50
2021,06,25,16,53,29.60
2021,06,25,16,54,29.70
2021,06,25,16,55,29.80
2021,06,25,16,56,29.80
2021,06,25,16,57,29.70
2021,06,25,16,58,29.70
2021,06,25,16,59,29.80
2021,06,25,17,00,29.80
2021,06,25,17,01,29.80
2021,06,25,17,02,29.90
2021,06,25,17,03,29.90
2021,06,25,17,04,29.90
2021,06,25,17,05,29.90
2021,06,25,17,06,29.90
2021,06,25,17,07,29.90
2021,06,25,17,08,29.90
2021,06,25,17,09,29.90
2021,06,25,17,10,29.90
2021,06,25,17,11,29.90
2021,06,25,17,12,30.00
2021,06,25,17,13,30.10
2021,06,25,17,14,30.10
2021,06,25,17,15,30.20
2021,06,25,17,16,30.20
2021,06,25,17,17,30.30
2021,06,25,17,18,30.30
2021,06,25,17,19,30.30